Retour au catalogue

STARLINK-34301

ActifCommunicationsVLEO
NORAD 64349·PAYLOAD·🇺🇸 United States

Lancé Jun 13, 2025 depuis Vandenberg Space Force Base

Loading…

Prochains Passages (prochaines 24 heures)

TLE

FraisSource: CelesTrak SupGP

Époque: Sep 15, 2026, 03:45 UTC

1 64349C 25126F   26258.15673611 -.00030301  00000+0 -10546-2 0  2589
2 64349  70.0004 275.2024 0003627 270.7460 347.2652 15.29576803    11

Suivez STARLINK-34301 en temps réel avec AllMySat

Download on the App Store